Regional Weather Roundup
Issued by NWS

Home | Current Version | Previous Version | Text Only | Print | Product List | Glossary On
Versions: 1 2 3 4 5 6 7 8 9 10 11 12 13 14 15 16 17 18 19 20 21 22 23 24 25 26 27 28 29 30 31 32 33 34 35 36 37 38 39 40 41 42 43 44 45 46 47 48 49
000
ASUS45 KPSR 261610
RWRAZ

ARIZONA REGIONAL HOURLY WEATHER ROUNDUP
NATIONAL WEATHER SERVICE TUCSON AZ
900 AM MST MON JUN 26 2017

NOTE: FAIR INDICATES FEW OR NO CLOUDS BELOW 12,000 FEET WITH NO
SIGNIFICANT WEATHER AND/OR OBSTRUCTIONS TO VISIBILITY.

AZZ001>003-036-261700-
NORTHWEST ARIZONA

CITY           SKY/WX    TMP DP  RH WIND       PRES   REMARKS
BULLHEAD CITY  SUNNY    104  25   6 S5        29.85S
KINGMAN        SUNNY     94  27   9 SW17G26   30.08R
$$

AZZ004>008-015-016-018-261700-
NORTH CENTRAL ARIZONA

CITY           SKY/WX    TMP DP  RH WIND       PRES   REMARKS
GRAND CANYON   SUNNY     80  36  20 S9        30.34S
PRESCOTT       SUNNY     85  45  24 SE13      30.22F
FLAGSTAFF      SUNNY     74  43  32 S12       30.38S
PAYSON         SUNNY     81  46  30 CALM      30.29S
PAGE           SUNNY     87  36  16 VRB3      30.12S
$$

AZZ009>014-017-261700-
NORTHEAST ARIZONA

CITY           SKY/WX    TMP DP  RH WIND       PRES   REMARKS
WINSLOW        SUNNY     86  44  23 SE8       30.20F
SAINT JOHNS    SUNNY     80  44  27 CALM      30.27S
WINDOW ROCK    SUNNY     77  43  29 W3        30.35F
SHOW LOW       SUNNY     75  45  33 S17       30.34F
$$

AZZ023-261700-
GREATER PHOENIX AREA

CITY           SKY/WX    TMP DP  RH WIND       PRES   REMARKS
PHOENIX        MOSUNNY   95  60  31 VRB6      29.94S
BUCKEYE        SUNNY     93  61  33 CALM      29.94F
GLENDALE       MOSUNNY   95  61  31 S8        29.96S
LUKE AFB       SUNNY     95  61  32 S10       29.93F
DEER VALLEY    SUNNY     93  60  33 W7        29.96S
SCOTTSDALE     SUNNY     94  59  31 CALM      29.99S
MESA-FALCON    SUNNY     95  57  28 SW6       29.96S
MESA-GATEWAY   SUNNY     95  57  28 SE5       29.98R
$$

AZZ027-028-261700-
SOUTHWEST MARICOPA COUNTY AND PINAL COUNTY

CITY           SKY/WX    TMP DP  RH WIND       PRES   REMARKS
CASA GRANDE    SUNNY     96  60  30 VRB3      29.98S
$$

AZZ503-504-507>509-261700-
SOUTHEAST ARIZONA

CITY           SKY/WX    TMP DP  RH WIND       PRES   REMARKS
TUCSON         SUNNY     91  54  28 CALM      30.08F
DAVIS-MONTHAN  SUNNY     92  53  26 E6        30.06F
RYAN FIELD     SUNNY     93  55  27 E10       30.06
NOGALES        SUNNY     85  54  34 CALM      30.16F
SIERRA VISTA   SUNNY     83  50  31 CALM      30.22F
DOUGLAS        SUNNY     82  53  36 NE6       30.19F
SAFFORD        SUNNY     82  59  45 VRB3      30.13F
$$

AZZ020-021-025-026-031-261700-
SOUTHWEST ARIZONA

CITY           SKY/WX    TMP DP  RH WIND       PRES   REMARKS
YUMA           MOSUNNY   92  66  42 S8        29.87S
$$

CAZ031-033-041-043-047-048-061-261700-
SOUTHERN CALIFORNIA

CITY           SKY/WX    TMP DP  RH WIND       PRES   REMARKS
DOWNTOWN L.A.  SUNNY     81  63  54 CALM      29.90S
L.A. AIRPORT   MOSUNNY   77  62  59 CALM      29.91R
SAN DIEGO      MOSUNNY   73  64  73 SW7       29.95R
BURBANK        SUNNY     84  56  38 CALM      29.93R
ONTARIO        SUNNY     87  53  31 S3        29.93S
RIVERSIDE      SUNNY     87  54  32 CALM      29.93R
PALM SPRINGS   SUNNY     89  70  53 SE8       29.91R
EL CENTRO NAS  MOSUNNY   89  72  56 SE7       29.86S
IMPERIAL       SUNNY     89  75  63 SE8       29.84S
BLYTHE         SUNNY     95  66  38 S14       29.87S
$$

NVZ020-UTZ003-261700-
SOUTHERN NEVADA-UTAH

CITY           SKY/WX    TMP DP  RH WIND       PRES   REMARKS
LAS VEGAS      SUNNY     97  12   4 SW8       29.91S
SALT LAKE CITY MOSUNNY   85  42  22 S10       30.08F
$$

NMZ009-TXZ055-261700-
NEW MEXICO-WEST TEXAS

CITY           SKY/WX    TMP DP  RH WIND       PRES   REMARKS
ALBUQUERQUE    MOSUNNY   74  52  46 VRB3      30.30F
EL PASO        PTSUNNY   76  63  64 E9        30.23S
$$


........................KEY........................
SKY/WX - SKY CONDITION/WEATHER
TMP    - TEMPERATURE IN FAHRENHEIT
DP     - DEWPOINT IN FAHRENHEIT
RH     - RELATIVE HUMIDITY IN PERCENT
WIND   - DIRECTION AND SPEED IN MILES PER HOUR (MPH)
VRB    - VARIABLE WIND DIRECTION
PRES   - MEAN SEA LEVEL PRESSURE IN INCHES OF MERCURY
         F - FALLING PRESSURE   R - RISING PRESSURE
         S - STEADY PRESSURE
VSB    - VISIBILITY IN MILES
HX     - HEAT INDEX IN FAHRENHEIT
WCI    - WIND CHILL INDEX IN FAHRENHEIT
TC     - TEMPERATURE IN CELSIUS WHICH IS ALSO KNOWN AS
         TEMPERATURE IN CENTIGRADE
AFB    - AIR FORCE BASE
         LUKE AFB IS LUKE AIR FORCE BASE
         DAVIS-MONTHAN IS DAVIS-MONTHAN AIR FORCE BASE
NAS    - NAVAL AIR STATION
         EL CENTRO NAS IS EL CENTRO NAVAL AIR STATION
N/A    - NOT AVAILABLE





USA.gov is the U.S. government's official web portal to all federal, state and local government web resources and services.